Location: ???????
(38.3063°N, 23.8625°E)
Time: 01:52:30
(UTC+00:00)

Daily predictions for brighter satellites

Satellite Brightness Start Highest point End
(mag) Time Altitude Azimuth Time Altitude Azimuth Time Altitude Azimuth
Cosmos 1943 Rocket 3.7 02:25:02 29° NE 02:25:02 29° NE 02:27:48 10° NNE
CENTAUR R/B 3.3 02:28:55 41° NNE 02:28:55 41° NNE 02:33:18 10° NNE
Cosmos 2082 Rocket 3.9 02:33:43 23° SSE 02:33:43 23° SSE 02:35:42 10° SSE
NOSS 3-2 (C) 3.6 02:46:05 58° NE 02:46:05 58° NE 02:51:03 10° NNE
Cosmos 2344 3.8 02:53:31 46° NNW 02:53:31 46° NNW 02:59:51 10° NNE
DELTA 2 R/B (1) 4.2 02:52:14 46° SSE 02:52:36 47° SSE 02:57:53 10° E
Meteor 2-3 Rocket 3.7 02:51:42 10° S 02:57:19 79° E 03:03:03 10° NNE
Envisat 4.2 02:53:20 10° NNE 02:58:08 41° E 03:02:53 10° SSE
Cosmos 968 Rocket 3.4 03:02:25 73° SSE 03:02:52 81° ESE 03:08:01 10° NNE
USA 238 DEB 3.6 03:12:40 54° WNW 03:12:55 55° NW 03:19:34 10° NNE
USA 238 3.6 03:12:43 55° WNW 03:13:01 55° NW 03:19:40 10° NNE
Genesis I 4.4 03:14:31 37° NNE 03:15:10 40° NE 03:19:00 10° SE
Cosmos 921 Rocket 4.2 03:13:45 22° NNE 03:16:08 41° ENE 03:20:22 10° SE
Meteor 1-26 Rocket 4.4 03:11:22 12° N 03:16:59 77° E 03:22:43 10° SSE
BREEZE-M DEB (TANK) 3.5 03:15:56 47° NNW 03:17:10 64° NE 03:30:58 10° ESE
Gbstr 26 Del rocket 3.0 03:18:32 67° SE 03:18:32 67° SE 03:22:17 10° SE
USA 215 4.1 03:15:45 10° ESE 03:21:49 43° NNE 03:25:42 21° NNW
Cosmos 1570 Rocket 3.9 03:21:56 60° WNW 03:22:36 67° WSW 03:27:48 10° S
Cosmos 1812 3.9 03:21:51 16° NNE 03:24:33 41° E 03:28:10 10° SSE
Cosmos 2034 Rocket 4.1 03:24:10 45° WNW 03:25:13 49° W 03:31:13 10° SSW
Cosmos 1766 Rocket 4.5 03:22:46 10° SSE 03:26:55 48° E 03:31:06 10° NNE
Cosmos 1151 Rocket 4.1 03:25:25 10° N 03:29:39 45° E 03:33:50 10° SSE
Cosmos 1814 Rocket 4.2 03:32:11 45° WSW 03:32:11 45° WSW 03:36:54 10° S
Cosmos 2369 Rocket 2.0 03:30:54 10° SSW 03:36:28 74° WNW 03:42:05 10° NNE
Cosmos 1782 2.7 03:40:17 56° NW 03:40:46 63° W 03:44:39 10° S
Meteor 1-31 Rocket 2.7 03:37:21 10° NNE 03:41:16 87° ESE 03:45:10 10° SSW
Hubble Space Telescope 3.1 03:43:15 12° SSW 03:44:07 12° SSW 03:45:51 10° S
COSMO-SKYMED 1 2.5 03:40:17 10° SSE 03:44:37 88° E 03:48:36 12° NNW
Cosmos 1862 3.4 03:40:49 10° S 03:44:44 76° E 03:48:41 10° N
SJ-12 3.9 03:41:44 10° N 03:45:48 58° WNW 03:49:50 10° SSW
MOS 1-B Rocket 4.0 03:41:06 10° S 03:47:39 65° WSW 03:53:27 10° NNW
Cosmos 1634 Rocket 3.9 03:41:24 10° N 03:47:39 73° W 03:53:49 10° S
Tsikada Rocket 4.4 03:44:48 10° SW 03:50:29 38° WNW 03:56:16 10° N
Cosmos 1867 3.9 03:50:15 31° WNW 03:52:22 46° WSW 03:57:32 10° S
Helios 1B 4.5 03:49:24 10° S 03:53:41 68° WSW 03:57:21 14° NNW
Cosmos 2208 Rocket 4.4 03:52:18 27° NW 03:54:42 42° WSW 03:59:43 10° S
H-2A R/B 3.0 03:51:25 10° N 03:54:55 41° WNW 03:58:27 10° SW
Cosmos 1656 Rocket 3.5 03:55:15 10° SSW 04:00:35 64° WNW 04:06:00 10° NNE
Cosmos 1503 Rocket 4.0 03:56:52 10° SSW 04:02:06 87° WNW 04:07:27 10° NNE
Cosmos 1408 Rocket 4.3 03:58:11 10° S 04:02:22 54° E 04:06:34 10° NNE
CZ-4B R/B 3.8 03:59:51 10° NNE 04:03:16 44° E 04:06:42 10° S
TSX-5 4.3 03:58:10 13° NNW 04:03:27 79° WSW 04:07:54 10° SSE
CZ-2C R/B 2.7 04:00:15 10° S 04:05:42 59° W 04:11:04 10° NNW
Cosmos 1943 Rocket 3.5 04:06:38 19° NW 04:06:38 19° NW 04:10:25 10° N
CZ-4C R/B 2.6 04:06:13 10° SSE 04:09:23 86° W 04:12:31 10° NNW
Cosmos 1486 Rocket 4.3 04:04:50 10° SW 04:09:51 42° WNW 04:14:51 10° N
Cosmos 2180 Rocket 4.4 04:11:38 10° N 04:17:49 88° W 04:23:57 10° S
CENTAUR R/B 3.8 04:16:08 17° WNW 04:18:23 20° NNW 04:23:22 10° NNE
Cosmos 1515 Rocket 3.9 04:18:01 10° N 04:22:22 66° E 04:26:40 10° SSE
Meteor 2-19 Rocket 4.4 04:20:05 10° S 04:26:09 88° W 04:32:14 10° N
SJ 16-02 2.0 04:22:40 10° S 04:26:57 59° ESE 04:31:16 10° NNE
NOAA 11 4.2 04:23:56 10° N 04:29:20 62° WNW 04:34:44 10° SSW
NOAA 12 4.1 04:29:58 10° NNE 04:35:17 86° WNW 04:40:31 10° SSW
Meteor 2-8 Rocket 4.5 04:30:20 10° NNW 04:36:22 60° W 04:42:20 10° S
Cosmos 1340 Rocket 3.1 04:32:47 10° S 04:36:41 69° E 04:40:38 10° NNE
Envisat 4.1 04:33:00 10° NNW 04:36:50 22° WNW 04:40:40 10° WSW
Cosmos 1500 Rocket 3.7 04:34:05 10° S 04:38:31 80° E 04:43:00 10° N
DELTA 2 R/B (1) 3.6 04:33:20 10° W 04:38:53 85° N 04:44:27 10° E
Meteor 2-6 Rocket 4.5 04:34:00 10° NNW 04:39:04 43° W 04:44:08 10° SSW
Cosmos 2098 Rocket 4.3 04:37:40 10° WSW 04:40:20 18° WNW 04:43:23 10° NNW
ATLAS 3B R/B 2.9 04:38:00 10° SSW 04:44:26 74° ESE 04:51:10 10° NE
SL-27 R/B 2.9 04:42:57 10° N 04:46:31 63° ENE 04:50:00 10° SSE
Cosmos 1939 Rocket 2.7 04:42:53 10° N 04:46:49 71° WNW 04:50:39 10° SSW
BREEZE-M DEB (TANK) 4.3 04:32:25 10° NW 04:47:13 47° WSW 04:51:45 10° SSE
Cosmos 1805 Rocket 4.3 04:45:51 10° S 04:50:11 60° E 04:54:30 10° NNE
Sich 1 4.2 04:48:06 10° SSE 04:52:13 47° E 04:56:20 10° NNE
H-2A R/B 2.0 04:48:42 10° S 04:52:53 74° WSW 04:57:13 10° NNW
ATLAS 5 CENTAUR R/B 1.2 04:50:50 10° SW 04:54:34 70° NW 04:58:40 10° NNE
Cosmos 1174 3.0 04:52:44 10° SW 04:55:42 63° WNW 04:58:42 10° NNE
Okean O Rocket 4.3 04:52:03 10° NE 04:55:44 25° E 04:59:21 10° SSE
DNEPR-1 R/B 4.4 04:54:25 10° NW 04:59:19 53° WSW 05:05:13 10° SSE
ADEOS 4.4 04:56:04 10° N 05:00:24 27° WNW 05:04:44 10° WSW
